This demonstration page uses our WeatherBlox Daily Observations layout. Learn more.

Left ArrowRight Arrow

Hourly Observations for August 18, 2015

Temp ( °F °C ) Dew Point ( °F °C ) Humidity (%) Winds ( mph kmh ) Pressure ( in mb ) Visibility ( mi km ) Precip ( " mm )
12:53 am 00:53 Clear with Smoke 76 24.4 44 6.7 32 32 N 3 6 29.79 1009 9 14 0.00 0.00
1:53 am 01:53 Clear with Smoke 74 23.3 44 6.7 34 34 Calm 29.80 1009 9 14 0.00 0.00
2:53 am 02:53 Clear with Smoke 72 22.2 44 6.7 37 37 Calm 29.80 1009 9 14 0.00 0.00
3:53 am 03:53 Clear with Smoke 70 21.1 45 7.2 41 41 Calm 29.81 1010 9 14 0.00 0.00
4:53 am 04:53 Clear with Smoke 66 18.9 44 6.7 45 45 N 3 6 29.82 1010 10 16 0.00 0.00
5:53 am 05:53 Clear with Smoke 66 18.9 45 7.2 47 47 Calm 29.83 1010 9 14 0.00 0.00
6:53 am 06:53 Sunny 65 18.3 45 7.2 49 49 Calm 29.85 1011 10 16 0.00 0.00
7:53 am 07:53 Sunny with Smoke 73 22.8 47 8.3 40 40 Calm 29.85 1011 7 11 0.00 0.00
8:53 am 08:53 Sunny with Smoke 80 26.7 45 7.2 29 29 NNW 3 6 29.85 1011 8 13 0.00 0.00
9:53 am 09:53 Sunny with Smoke 87 30.6 42 5.6 21 21 VRB 3 6 29.84 1010 8 13 0.00 0.00
10:53 am 10:53 Sunny with Smoke 92 33.3 40 4.4 16 16 VRB 3 6 29.83 1010 8 13 0.00 0.00
11:53 am 11:53 Sunny with Smoke 96 35.6 42 5.6 15 15 VRB 6 9 29.81 1010 8 13 0.00 0.00
12:53 pm 12:53 Sunny with Smoke 100 37.8 42 5.6 14 14 S 7 11 29.80 1009 8 13 0.00 0.00
1:53 pm 13:53 Sunny with Smoke 104 40 36 2.2 9 9 VRB 6 9 29.77 1008 8 13 0.00 0.00
2:53 pm 14:53 Sunny with Smoke 105 40.6 33 0.6 8 8 SW 5 7 29.76 1008 8 13 0.00 0.00
3:53 pm 15:53 Sunny with Smoke 106 41.1 32 0 8 8 S 9 15 29.74 1007 10 16 0.00 0.00
4:53 pm 16:53 Sunny with Smoke 107 41.7 40 4.4 10 10 SSE 14 22 29.72 1006 8 13 0.00 0.00
5:53 pm 17:53 Sunny with Smoke 104 40 45 7.2 13 13 SSE 15 24 29.72 1006 9 14 0.00 0.00
6:53 pm 18:53 Sunny with Smoke 100 37.8 46 7.8 16 16 SSE 12 19 29.72 1007 9 14 0.00 0.00
7:53 pm 19:53 Sunny with Smoke 92 33.3 49 9.4 23 23 SSE 6 9 29.73 1007 10 16 0.00 0.00
8:53 pm 20:53 Clear with Smoke 87 30.6 48 8.9 26 26 Calm 29.76 1008 10 16 0.00 0.00
9:53 pm 21:53 Clear with Smoke 83 28.3 49 9.4 31 31 Calm 29.78 1009 10 16 0.00 0.00
10:53 pm 22:53 Clear with Smoke 83 28.3 51 10.6 33 33 Calm 29.79 1009 10 16 0.00 0.00
11:53 pm 23:53 Clear with Smoke 76 24.4 50 10 40 40 NE 5 7 29.80 1009 10 16 0.00 0.00

Powered by AerisWeather